This demonstration page uses our WeatherBlox Daily Observations layout. Learn more.

Left ArrowRight Arrow

Hourly Observations for February 4, 2021

Temp ( °F °C ) Dew Point ( °F °C ) Humidity (%) Winds ( mph kmh ) Pressure ( in mb ) Visibility ( mi km ) Precip ( " mm )
12:54 am 00:54 Mostly Cloudy 38 3.3 31 -0.6 76 76 N 18 30 29.62 1003 8 12.87472 0 0
1:28 am 01:28 Cloudy 37 2.8 31 -0.6 79 79 N 21 33 29.67 1005 9 14.48406 0 0
1:54 am 01:54 Cloudy 35 1.7 31 -0.6 85 85 NNW 23 37 29.67 1005 8 12.87472 0 0
2:54 am 02:54 Windy with Snow Likely 34 1.1 29 -1.7 82 82 N 26 43 29.66 1004 5 8.0467 0.001 0.001
3:20 am 03:20 Windy with Snow Likely 33 0.6 26 -3.3 75 75 N 25 41 29.72 1006 6 9.65604 0.001 0.001
3:47 am 03:47 Windy with Snow Likely 33 0.6 27 -2.8 78 78 N 24 39 29.73 1007 2.5 4.02335 0.001 0.001
3:52 am 03:52 Windy with Snow Likely 32 0 27 -3 80 80 N 28 44 29.72 1006 1.75 2.816345 0.001 0.001
3:54 am 03:54 Windy with Snow Likely 32 0 27 -2.8 82 82 N 30 48 29.68 1005 1.25 2.011675 0.001 0.001
3:59 am 03:59 Windy with Snow Likely 31 -0.6 27 -2.8 85 85 N 31 50 29.73 1007 0.75 1.207005 0.001 0.001
4:10 am 04:10 Windy with Snow Likely 31 -0.6 27 -2.8 85 85 N 26 43 29.74 1007 1 1.60934 0.001 0.001
4:23 am 04:23 Windy with Snow Likely 30 -1.1 26 -3.3 85 85 N 29 46 29.77 1008 2 3.21868 0.001 0.001
4:28 am 04:28 Windy with Snow Likely 30 -1.1 25 -3.9 82 82 N 26 43 29.77 1008 1.75 2.816345 0.001 0.001
4:38 am 04:38 Windy with Snow Likely 30 -1.1 26 -3.3 85 85 NNW 20 31 29.78 1009 2.5 4.02335 0.001 0.001
4:54 am 04:54 Windy with Snow Likely 30 -1.1 25 -3.9 82 82 NNW 24 39 29.75 1008 1.5 2.41401 0.001 0.001
5:01 am 05:01 Windy with Snow Likely 29 -1.7 24 -4.4 82 82 N 32 52 29.79 1009 1 1.60934 0.001 0.001
5:08 am 05:08 Windy with Snow Likely 29 -1.7 24 -4.4 82 82 N 32 52 29.79 1009 0.75 1.207005 0.001 0.001
5:23 am 05:23 Cloudy with Snow 28 -2.2 24 -4.4 85 85 N 25 41 29.8 1009 0.5 0.80467 0.001 0.001
5:35 am 05:35 Mostly Cloudy with Snow 28 -2.2 24 -4.4 85 85 N 23 37 29.8 1009 0.5 0.80467 0.01 0.254
5:41 am 05:41 Mostly Cloudy with Light Snow 28 -2.2 24 -4.4 85 85 NNW 18 30 29.81 1009 1 1.60934 0.01 0.254
5:54 am 05:54 Windy with Snow Likely 27 -2.8 23 -5 85 85 NNW 29 46 29.74 1007 1.5 2.41401 0.01 0.254
6:01 am 06:01 Windy with Snow Likely 27 -2.8 23 -5 85 85 NNW 29 46 29.78 1009 1.25 2.011675 0.001 0.001
6:54 am 06:54 Windy with Snow Likely 26 -3.3 20 -6.7 78 78 NNW 21 33 29.78 1008 5 8.0467 0.001 0.001
7:17 am 07:17 Windy with Snow Likely 25 -3.9 19 -7.2 78 78 NNW 26 43 29.84 1010 1.75 2.816345 0.001 0.001
7:22 am 07:22 Cloudy with Blowing Snow 26 -3.3 19 -7.2 75 75 NNW 23 37 29.84 1010 2 3.21868 0.001 0.001
7:31 am 07:31 Cloudy 26 -3.3 18 -7.8 71 71 NNW 26 43 29.86 1011 8 12.87472 0.001 0.001
7:43 am 07:43 Cloudy 25 -3.9 18 -7.8 75 75 NNW 22 35 29.88 1012 9 14.48406 0.001 0.001
7:54 am 07:54 Cloudy 25 -3.9 17 -8.3 72 72 NW 18 30 29.84 1011 7 11.26538 0.001 0.001
8:34 am 08:34 Mostly Cloudy with Light Snow 23 -5 15 -9.4 72 72 NNW 25 41 29.91 1013 5 8.0467 0.001 0.001
8:54 am 08:54 Mostly Sunny 24 -4.4 15 -9.4 68 68 NNW 22 35 29.86 1011 9 14.48406 0.001 0.001
9:54 am 09:54 Sunny 24 -4.4 13 -10.6 62 62 NNW 24 39 29.88 1012 10 16.0934 0 0
10:54 am 10:54 Sunny 24 -4.4 12 -11.1 60 60 NNW 20 31 29.9 1013 10 16.0934 0.001 0.001
11:54 am 11:54 Sunny 25 -3.9 13 -10.6 60 60 NW 21 33 29.91 1013 10 16.0934 0 0
12:54 pm 12:54 Sunny 25 -3.9 12 -11.1 58 58 NW 20 31 29.88 1012 10 16.0934 0 0
1:54 pm 13:54 Sunny 26 -3.3 12 -11.1 55 55 NNW 22 35 29.9 1012 10 16.0934 0 0
2:54 pm 14:54 Sunny 26 -3.3 11 -11.7 53 53 NW 17 28 29.9 1013 10 16.0934 0 0
3:54 pm 15:54 Sunny 28 -2.2 13 -10.6 53 53 NW 12 19 29.9 1013 10 16.0934 0 0
4:54 pm 16:54 Sunny 28 -2.2 14 -10 56 56 WNW 7 11 29.9 1013 10 16.0934 0 0
5:54 pm 17:54 Clear 27 -2.8 14 -10 58 58 WNW 7 11 29.92 1013 10 16.0934 0 0
6:54 pm 18:54 Clear 23 -5 13 -10.6 65 65 SW 3 6 29.92 1013 10 16.0934 0 0
7:54 pm 19:54 Clear 21 -6.1 13 -10.6 71 71 S 5 7 29.89 1012 10 16.0934 0 0
8:54 pm 20:54 Mostly Clear 22 -5.6 14 -10 71 71 Calm 29.9 1012 10 16.0934 0 0
9:54 pm 21:54 Clear 20 -6.7 14 -10 78 78 Calm 29.88 1012 10 16.0934 0 0
10:54 pm 22:54 Clear 15 -9.4 9 -12.8 77 77 S 5 7 29.86 1011 10 16.0934 0 0
11:54 pm 23:54 Clear 20 -6.7 15 -9.4 81 81 Calm 29.86 1011 10 16.0934 0 0

Powered by AerisWeather